Hourly Weather Ruseni

Today, 20 April, Tuesday

Time Temperature Precipitation Wind Pressure Humidity
00:00 +10°C° 0 mm 2 mps 754 mmHg 81%
01:00 +9°C° 0 mm 3 mps 754 mmHg 83%
02:00 +9°C° 0 mm 3 mps 753 mmHg 85%
03:00 +9°C° 0.1 mm 3 mps 753 mmHg 85%
04:00 +9°C° 0.1 mm 3 mps 753 mmHg 86%
05:00 +8°C° 0.1 mm 3 mps 753 mmHg 87%
06:00 +9°C° 0.1 mm 3 mps 753 mmHg 84%
07:00 +9°C° 0.1 mm 3 mps 753 mmHg 81%
08:00 +8°C° 0.1 mm 4 mps 753 mmHg 78%
09:00 +10°C° 0 mm 4 mps 753 mmHg 70%
10:00 +11°C° 0 mm 4 mps 753 mmHg 62%
11:00 +13°C° 0 mm 4 mps 753 mmHg 53%
12:00 +13°C° 0 mm 4 mps 753 mmHg 50%
13:00 +13°C° 0 mm 4 mps 753 mmHg 47%
14:00 +14°C° 0 mm 3 mps 753 mmHg 44%
15:00 +14°C° 0 mm 3 mps 753 mmHg 45%
16:00 +14°C° 0 mm 3 mps 753 mmHg 46%
17:00 +14°C° 0 mm 3 mps 753 mmHg 47%
18:00 +13°C° 0 mm 2 mps 754 mmHg 51%
19:00 +12°C° 0 mm 2 mps 754 mmHg 55%
20:00 +10°C° 0 mm 2 mps 754 mmHg 60%
21:00 +10°C° 0 mm 2 mps 754 mmHg 63%
22:00 +9°C° 0 mm 2 mps 755 mmHg 66%
23:00 +9°C° 0 mm 2 mps 755 mmHg 69%

Tomorrow, 21 April, Wednesday

Time Temperature Precipitation Wind Pressure Humidity
00:00 +8°C° 0 mm 2 mps 755 mmHg 75%
01:00 +8°C° 0 mm 2 mps 755 mmHg 81%
02:00 +7°C° 0 mm 2 mps 755 mmHg 87%
03:00 +8°C° 0.1 mm 2 mps 755 mmHg 86%
04:00 +9°C° 0.1 mm 1 mps 755 mmHg 86%
05:00 +9°C° 0.1 mm 1 mps 756 mmHg 85%
06:00 +10°C° 0 mm 1 mps 756 mmHg 80%
07:00 +11°C° 0 mm 1 mps 756 mmHg 74%
08:00 +12°C° 0 mm 1 mps 757 mmHg 68%
09:00 +13°C° 0.2 mm 2 mps 757 mmHg 63%
10:00 +13°C° 0.2 mm 3 mps 757 mmHg 58%
11:00 +16°C° 0.2 mm 3 mps 757 mmHg 52%
12:00 +16°C° 0.1 mm 3 mps 757 mmHg 51%
13:00 +16°C° 0.1 mm 3 mps 757 mmHg 50%
14:00 +16°C° 0.1 mm 3 mps 757 mmHg 49%
15:00 +16°C° 0 mm 3 mps 757 mmHg 49%
16:00 +16°C° 0 mm 2 mps 757 mmHg 49%
17:00 +16°C° 0 mm 2 mps 757 mmHg 49%
18:00 +15°C° 0 mm 2 mps 757 mmHg 52%
19:00 +14°C° 0 mm 2 mps 758 mmHg 54%
20:00 +13°C° 0 mm 2 mps 758 mmHg 57%
21:00 +13°C° 0 mm 2 mps 758 mmHg 60%
22:00 +12°C° 0 mm 2 mps 758 mmHg 63%
23:00 +10°C° 0 mm 2 mps 758 mmHg 65%

Day after tomorrow, 22 April, Thursday

Time Temperature Precipitation Wind Pressure Humidity
00:00 +10°C° 0 mm 2 mps 758 mmHg 68%
01:00 +9°C° 0 mm 2 mps 758 mmHg 71%
02:00 +9°C° 0 mm 2 mps 758 mmHg 74%
03:00 +9°C° 0 mm 2 mps 758 mmHg 76%
04:00 +9°C° 0 mm 2 mps 758 mmHg 77%
05:00 +8°C° 0 mm 2 mps 759 mmHg 78%
06:00 +10°C° 0 mm 2 mps 759 mmHg 71%
07:00 +12°C° 0 mm 3 mps 759 mmHg 65%
08:00 +14°C° 0 mm 3 mps 759 mmHg 58%
09:00 +16°C° 0 mm 3 mps 759 mmHg 53%
10:00 +18°C° 0 mm 3 mps 759 mmHg 48%
11:00 +19°C° 0 mm 4 mps 759 mmHg 43%
12:00 +19°C° 0 mm 4 mps 759 mmHg 40%
13:00 +20°C° 0 mm 5 mps 759 mmHg 38%
14:00 +21°C° 0 mm 5 mps 759 mmHg 36%
15:00 +20°C° 0 mm 5 mps 759 mmHg 38%
16:00 +20°C° 0 mm 5 mps 759 mmHg 40%
17:00 +20°C° 0 mm 5 mps 758 mmHg 42%
18:00 +17°C° 0 mm 5 mps 759 mmHg 49%
19:00 +15°C° 0 mm 4 mps 759 mmHg 55%
20:00 +13°C° 0 mm 4 mps 759 mmHg 61%
21:00 +13°C° 0 mm 4 mps 759 mmHg 65%
22:00 +12°C° 0 mm 4 mps 759 mmHg 68%
23:00 +11°C° 0 mm 3 mps 759 mmHg 72%

23 April, Friday

Time Temperature Precipitation Wind Pressure Humidity
00:00 +11°C° 0.1 mm 3 mps 759 mmHg 75%
01:00 +10°C° 0.1 mm 3 mps 759 mmHg 79%
02:00 +10°C° 0.1 mm 3 mps 759 mmHg 82%
03:00 +9°C° 0 mm 3 mps 759 mmHg 83%
04:00 +9°C° 0 mm 3 mps 759 mmHg 84%
05:00 +9°C° 0 mm 3 mps 759 mmHg 85%
06:00 +11°C° 0 mm 4 mps 759 mmHg 79%
07:00 +12°C° 0 mm 5 mps 759 mmHg 72%
08:00 +14°C° 0 mm 6 mps 759 mmHg 65%
09:00 +16°C° 0 mm 6 mps 758 mmHg 59%
10:00 +18°C° 0 mm 7 mps 758 mmHg 52%
11:00 +21°C° 0 mm 8 mps 758 mmHg 45%
12:00 +21°C° 0 mm 8 mps 758 mmHg 43%
13:00 +21°C° 0 mm 8 mps 757 mmHg 41%
14:00 +21°C° 0 mm 8 mps 757 mmHg 39%
15:00 +20°C° 0 mm 8 mps 757 mmHg 46%
16:00 +18°C° 0 mm 7 mps 757 mmHg 52%
17:00 +16°C° 0 mm 7 mps 757 mmHg 59%
18:00 +14°C° 0.3 mm 7 mps 758 mmHg 66%
19:00 +10°C° 0.3 mm 7 mps 759 mmHg 74%
20:00 +8°C° 0.3 mm 7 mps 760 mmHg 82%
21:00 +6°C° 0.1 mm 7 mps 760 mmHg 83%
22:00 +5°C° 0.1 mm 7 mps 761 mmHg 83%
23:00 +5°C° 0.1 mm 7 mps 761 mmHg 84%

24 April, Saturday

Time Temperature Precipitation Wind Pressure Humidity
00:00 +5°C° 0.5 mm 7 mps 761 mmHg 84%
01:00 +4°C° 0.5 mm 6 mps 761 mmHg 85%
02:00 +4°C° 0.5 mm 6 mps 761 mmHg 86%
03:00 +5°C° 0.2 mm 5 mps 761 mmHg 87%
04:00 +5°C° 0.2 mm 4 mps 761 mmHg 87%
05:00 +5°C° 0.2 mm 3 mps 761 mmHg 88%
06:00 +6°C° 0 mm 4 mps 761 mmHg 81%
07:00 +7°C° 0 mm 4 mps 762 mmHg 74%
08:00 +8°C° 0 mm 5 mps 762 mmHg 67%
09:00 +9°C° 0 mm 5 mps 762 mmHg 61%
10:00 +10°C° 0 mm 5 mps 762 mmHg 54%
11:00 +12°C° 0 mm 5 mps 762 mmHg 47%
12:00 +12°C° 0 mm 5 mps 761 mmHg 45%
13:00 +13°C° 0 mm 5 mps 761 mmHg 43%
14:00 +14°C° 0 mm 4 mps 761 mmHg 41%
15:00 +14°C° 0 mm 4 mps 761 mmHg 41%
16:00 +14°C° 0 mm 4 mps 761 mmHg 40%
17:00 +14°C° 0 mm 3 mps 761 mmHg 40%
18:00 +12°C° 0 mm 3 mps 761 mmHg 45%
19:00 +12°C° 0 mm 2 mps 761 mmHg 49%
20:00 +11°C° 0 mm 1 mps 761 mmHg 54%
21:00 +10°C° 0 mm 1 mps 761 mmHg 56%
22:00 +10°C° 0 mm 1 mps 761 mmHg 58%
23:00 +8°C° 0 mm 0 mps 761 mmHg 60%

25 April, Sunday

Time Temperature Precipitation Wind Pressure Humidity
00:00 +8°C° 0 mm 0 mps 761 mmHg 61%
01:00 +8°C° 0 mm 0 mps 761 mmHg 62%
02:00 +7°C° 0 mm 0 mps 761 mmHg 62%
03:00 +7°C° 0 mm 0 mps 761 mmHg 62%
04:00 +9°C° 0 mm 1 mps 761 mmHg 62%
05:00 +9°C° 0 mm 1 mps 761 mmHg 62%
06:00 +10°C° 0 mm 1 mps 761 mmHg 59%
07:00 +10°C° 0 mm 2 mps 761 mmHg 56%
08:00 +12°C° 0 mm 2 mps 761 mmHg 53%
09:00 +13°C° 0 mm 2 mps 761 mmHg 52%
10:00 +14°C° 0 mm 2 mps 761 mmHg 51%
11:00 +14°C° 0 mm 2 mps 761 mmHg 51%
12:00 +13°C° 0.1 mm 3 mps 761 mmHg 53%
13:00 +13°C° 0.1 mm 4 mps 761 mmHg 56%
14:00 +11°C° 0.1 mm 6 mps 761 mmHg 58%
15:00 +11°C° 0 mm 6 mps 762 mmHg 58%
16:00 +11°C° 0 mm 6 mps 762 mmHg 58%
17:00 +10°C° 0 mm 6 mps 762 mmHg 58%
18:00 +10°C° 0 mm 5 mps 762 mmHg 57%
19:00 +10°C° 0 mm 4 mps 763 mmHg 56%
20:00 +9°C° 0 mm 3 mps 763 mmHg 55%
21:00 +8°C° 0 mm 3 mps 763 mmHg 56%
22:00 +7°C° 0 mm 2 mps 763 mmHg 56%
23:00 +7°C° 0 mm 2 mps 764 mmHg 56%
Show more